[[{"header":{"parameterUnit":"m.s-1","parameterCategory":1,"la1":30.2991,"la2":30.254,"lo1":-89.0895,"lo2":-89.0444,"dy":0.0017,"dx":0.0017,"nx":28,"ny":28,"refTime":"2024-04-23T21:00:00:Z","depth":0,"parameterNumber":2,"parameterNumberName":"U-component_of_WINDS"},"data":[0,0,0,0,0,0,0,0,0,0,0,0,0,0,0,0,0,0,0,0,0,0,0,0,0,0,0,0,0,0,0,0,0,0,0,0,0,0,0,0,0,0,0,0,0,0,0,0,0,0,0,0,0,0,0,0,0,0,-4.7306,-4.7306,0,-4.729,-4.729,-4.729,-4.7175,-4.7172,-4.7169,-4.7166,-4.7149,-4.7152,-4.7154,0,0,0,0,0,0,0,0,0,0,0,0,0,-4.7238,-4.724,-4.7307,-4.7306,-4.7306,-4.729,-4.729,-4.729,-4.7175,-4.7172,-4.7168,-4.7165,-4.7149,-4.7151,-4.7154,0,0,0,0,0,0,0,0,0,0,0,0,0,-4.725,-4.7241,-4.7307,-4.7247,-4.7241,-4.7291,-4.729,-4.729,-4.7176,-4.7172,-4.7167,-4.7163,-4.7148,-4.7151,-4.7154,-4.7259,0,0,-4.7164,-4.7166,0,0,0,0,0,0,0,0,-4.7249,-4.7252,-4.7256,-4.7251,-4.7245,-4.723,-4.726,-4.728,-4.7177,-4.7201,-4.7166,-4.7161,-4.718,-4.718,-4.7186,-4.7258,-4.7258,-4.7165,-4.7167,-4.7168,-4.7169,0,0,0,0,0,0,0,-4.7249,-4.7252,-4.73,-4.7256,-4.7249,-4.7221,-4.7218,-4.7263,-4.7214,-4.7198,-4.719,-4.719,-4.7176,-4.7183,-4.7185,-4.7257,-4.7164,-4.7167,-4.7169,-4.7171,-4.7415,-4.7419,0,0,0,0,0,0,-4.7256,-4.7252,-4.7301,-4.73,-4.7237,-4.7226,-4.7222,-4.7239,-4.7213,-4.7205,-4.7193,-4.7184,-4.718,-4.7181,-4.7184,-4.7304,-4.7168,-4.7171,-4.7173,-4.7411,-4.7416,-4.7421,0,0,0,0,0,0,-4.7255,-4.7261,-4.7301,-4.7274,-4.7277,-4.7232,-4.7251,-4.7241,-4.7248,-4.721,-4.72,-4.721,-4.7177,-4.7179,-4.7241,-4.7302,-4.7172,-4.7175,-4.7405,-4.7412,-4.7418,-4.7546,0,0,0,0,0,0,-4.7254,-4.7262,-4.7301,-4.7276,-4.7279,-4.7359,-4.7255,-4.7244,-4.7254,-4.7243,-4.7223,-4.7215,-4.7174,-4.7237,-4.7245,-4.7304,-4.7178,-4.7399,-4.7408,-4.7416,-4.7536,-4.7556,-4.7574,0,0,0,0,0,-4.7252,-4.7337,-4.7303,-4.731,-4.7326,-4.7362,-4.7364,-4.7315,-4.726,-4.7299,-4.7274,-4.7216,-4.7295,-4.7244,-4.7252,-4.7313,-4.7395,-4.7406,-4.7416,-4.7528,-4.7552,-4.7573,0,0,0,0,0,0,-4.7369,-4.7333,-4.7295,-4.7375,-4.7373,-4.7343,-4.739,-4.7342,-4.7355,-4.7344,-4.7282,-4.7279,-4.735,-4.7338,-4.7282,-4.7414,-4.7335,-4.7348,-4.7418,-4.7441,-4.746,-4.7459,-4.7181,0,0,0,0,0,-4.7405,-4.7438,-4.7404,-4.7478,-4.7479,-4.7435,-4.7449,-4.7412,-4.7407,-4.7405,-4.7385,-4.7383,-4.7407,-4.7424,-4.7444,-4.7536,-4.7529,-4.7582,-4.7601,-4.7616,-4.7626,-4.7673,-4.7696,-4.7454,-4.7454,-4.7454,0,0,-4.7478,-4.7462,-4.7486,-4.7501,-4.7495,-4.753,-4.7435,-4.7476,-4.7501,-4.7411,-4.7468,-4.7454,-4.7447,-4.7524,-4.7557,-4.7517,-4.7692,-4.7629,-4.7642,-4.7643,-4.7686,-4.7709,-4.7729,-4.7461,-4.746,-4.7459,0,0,-4.7628,-4.7621,-4.7681,-4.7677,-4.767,-4.7641,-4.7656,-4.7635,-4.7621,-4.7678,-4.7611,-4.7641,-4.7685,-4.7683,-4.7687,-4.7841,-4.7788,-4.785,-4.7946,-4.7993,-4.8012,-4.8029,-4.8082,-4.8102,-4.7861,-4.7861,-4.7861,0,-4.7719,-4.7769,-4.7718,-4.7763,-4.7771,-4.7694,-4.7754,-4.7754,-4.7754,-4.7761,-4.7717,-4.777,-4.776,-4.7836,-4.7873,-4.7881,-4.7895,-4.785,-4.8014,-4.803,-4.8044,-4.8094,-4.8115,-4.7869,-4.7868,-4.7867,-4.7866,0,-4.7881,-4.7918,-4.7967,-4.797,-4.7984,-4.8037,-4.7994,-4.8015,-4.7978,-4.7954,-4.8013,-4.7999,-4.8015,-4.8031,-4.7995,-4.8102,-4.8077,-4.8025,-4.7943,-4.8076,-4.8121,-4.814,-4.7879,-4.7877,-4.7874,-4.7873,0,0,-4.81,-4.8077,-4.8095,-4.8096,-4.8084,-4.811,-4.8161,-4.8178,-4.8196,-4.8201,-4.824,-4.8281,-4.8232,-4.8238,-4.8201,-4.8243,-4.8364,-4.8185,-4.8184,-4.8216,-4.848,-4.8517,-4.854,-4.8331,-4.8334,-4.8337,-4.848,0,-4.8243,-4.8327,-4.8283,-4.8373,-4.8405,-4.8334,-4.8378,-4.8376,-4.8356,-4.8381,-4.8359,-4.8388,-4.8323,-4.8325,-4.8364,-4.8341,-4.8416,-4.8331,-4.8366,-4.8367,-4.8366,-4.8565,-4.8604,-4.8739,-4.8498,-4.8501,-4.8503,0,-4.8419,-4.8431,-4.8524,-4.8507,-4.8519,-4.8559,-4.8571,-4.8597,-4.8594,-4.8576,-4.8585,-4.8539,-4.8587,-4.8511,-4.8576,-4.852,-4.8532,-4.8524,-4.8528,-4.8526,-4.844,-4.8566,-4.8781,-4.8801,-4.8531,-4.8529,-4.8527,0,-4.8567,-4.8607,-4.8667,-4.8671,-4.8653,-4.8683,-4.8677,-4.867,-4.8683,-4.8695,-4.8702,-4.872,-4.8729,-4.8743,-4.8704,-4.8652,-4.8775,-4.8695,-4.876,-4.8761,-4.8786,-4.8784,-4.9003,-4.88,-4.88,-4.8799,-4.8799,0,-4.8728,-4.8787,-4.8734,-4.877,-4.8835,-4.8786,-4.8851,-4.8838,-4.8833,-4.8866,-4.8807,-4.8839,-4.8787,-4.8814,-4.8784,-4.8842,-4.8848,-4.8834,-4.8825,-4.8837,-4.8839,-4.8842,-4.883,-4.8805,-4.8804,-4.8803,-4.8802,0,-4.8901,-4.8869,-4.893,-4.891,-4.8906,-4.8954,-4.8937,-4.897,-4.8948,-4.8991,-4.8999,-4.8964,-4.8993,-4.8956,-4.8982,-4.8962,-4.9041,-4.9019,-4.9042,-4.9034,-4.9101,-4.9094,-4.9327,-4.9355,-4.9137,-4.9139,-4.9141,0,-4.9004,-4.9048,-4.9034,-4.9052,-4.905,-4.9081,-4.9094,-4.9049,-4.9066,-4.9068,-4.9101,-4.9126,-4.9143,-4.9194,-4.917,-4.919,-4.9167,-4.9247,-4.9169,-4.9181,-4.9165,-4.9161,-4.9165,-4.9262,-4.9264,-4.9267,-4.9268,0,-4.919,-4.9172,-4.9194,-4.9212,-4.9231,-4.9242,-4.9249,-4.9268,-4.9221,-4.9243,-4.9273,-4.9286,-4.9314,-4.9339,-4.9353,-4.9347,-4.93,-4.9294,-4.931,-4.9321,-4.9331,-4.9324,-4.9082,-4.9288,-4.9286,-4.9284,-4.9283,-4.9282,-4.9329,-4.9365,-4.9361,-4.9388,-4.9389,-4.9398,-4.9428,-4.9411,-4.9436,-4.9454,-4.9427,-4.9465,-4.9462,-4.9477,-4.9477,-4.9505,-4.947,-4.9494,-4.9499,-4.9505,-4.9514,-4.9331,-4.9508,-4.9508,-4.9507,-4.9507,-4.9506,0,-4.9509,-4.9504,-4.953,-4.9542,-4.9564,-4.9521,-4.9527,-4.9547,-4.9581,-4.9584,-4.9602,-4.9638,-4.9663,-4.9643,-4.9664,-4.9691,-4.967,-4.9697,-4.9693,-4.9692,-4.9545,-4.9528,-4.9714,-4.9714,-4.9714,-4.9714,-4.9714,-4.9714,-4.9605,-4.9663,-4.9646,-4.9704,-4.9699,-4.9735,-4.9742,-4.975,-4.9752,-4.9794,-4.9814,-4.9802,-4.9796,-4.9817,-4.9838,-4.9832,-4.9841,-4.9876,-4.9862,-4.9723,-4.9703,-4.9683,-4.9666,-4.9879,-4.9879,-5.0006,-5.0007,-5.0008]},{"header":{"parameterUnit":"m.s-1","parameterCategory":1,"la1":30.2991,"la2":30.254,"lo1":-89.0895,"lo2":-89.0444,"dy":0.0017,"dx":0.0017,"nx":28,"ny":28,"refTime":"2024-04-23T21:00:00:Z","depth":0,"parameterNumber":3,"parameterNumberName":"V-component_of_WINDS"},"data":[0,0,0,0,0,0,0,0,0,0,0,0,0,0,0,0,0,0,0,0,0,0,0,0,0,0,0,0,0,0,0,0,0,0,0,0,0,0,0,0,0,0,0,0,0,0,0,0,0,0,0,0,0,0,0,0,0,0,1.1525,1.1523,0,1.1315,1.1312,1.131,1.1144,1.1142,1.1141,1.1139,1.0929,1.0925,1.0921,0,0,0,0,0,0,0,0,0,0,0,0,0,1.1788,1.1784,1.1525,1.1522,1.152,1.1315,1.1312,1.1309,1.1144,1.1142,1.114,1.1138,1.093,1.0925,1.092,0,0,0,0,0,0,0,0,0,0,0,0,0,1.1636,1.1783,1.1525,1.1413,1.14,1.1316,1.1312,1.1309,1.1145,1.1142,1.114,1.1137,1.0932,1.0926,1.092,1.0932,0,0,1.0901,1.0898,0,0,0,0,0,0,0,0,1.1645,1.1626,1.1432,1.142,1.1406,1.1253,1.1328,1.1182,1.1145,1.1242,1.1139,1.1136,1.1039,1.1024,1.099,1.0922,1.0913,1.09,1.0897,1.0894,1.0892,0,0,0,0,0,0,0,1.1655,1.1634,1.1442,1.1429,1.1414,1.1374,1.135,1.1299,1.1157,1.1233,1.1221,1.1198,1.1031,1.0996,1.0984,1.091,1.0901,1.0895,1.0891,1.0889,1.0842,1.0845,0,0,0,0,0,0,1.1683,1.1644,1.1449,1.1436,1.1522,1.1371,1.1344,1.1305,1.1157,1.1132,1.12,1.1191,1.1008,1.0991,1.0976,1.0981,1.0894,1.0888,1.0885,1.084,1.0843,1.0846,0,0,0,0,0,0,1.1689,1.1667,1.1457,1.1536,1.1507,1.1369,1.1327,1.1302,1.1266,1.1132,1.1106,1.119,1.1005,1.0984,1.0944,1.0971,1.0886,1.088,1.0837,1.0841,1.0844,1.0992,0,0,0,0,0,0,1.1697,1.167,1.1672,1.1538,1.1503,1.1428,1.1328,1.13,1.1256,1.1242,1.1116,1.1092,1.1002,1.0954,1.0938,1.0962,1.0875,1.0834,1.0839,1.0843,1.0984,1.1,1.1014,0,0,0,0,0,1.1707,1.1723,1.1673,1.165,1.1502,1.143,1.141,1.1304,1.1259,1.126,1.1174,1.1096,1.0971,1.0951,1.0932,1.0954,1.0832,1.0837,1.0843,1.0977,1.0997,1.1014,0,0,0,0,0,0,1.1866,1.1703,1.1646,1.1618,1.1539,1.1402,1.14,1.1328,1.1261,1.1251,1.1123,1.1096,1.107,1.1007,1.0988,1.0959,1.0891,1.0893,1.1001,1.1018,1.1033,1.1049,1.087,0,0,0,0,0,1.1897,1.185,1.1711,1.17,1.1663,1.1539,1.1503,1.1428,1.1342,1.1308,1.1218,1.1139,1.1081,1.1046,1.0985,1.0974,1.0945,1.098,1.0995,1.1008,1.1011,1.1002,1.1017,1.0863,1.0863,1.0863,0,0,1.1962,1.1867,1.1846,1.1729,1.1659,1.1615,1.1512,1.1469,1.1436,1.1301,1.1258,1.119,1.1092,1.1067,1.1051,1.1014,1.1047,1.1015,1.1026,1.1022,1.101,1.1024,1.1037,1.0867,1.0866,1.0866,0,0,1.2058,1.1981,1.1964,1.1895,1.1789,1.1707,1.1703,1.1577,1.1526,1.148,1.1379,1.1338,1.1241,1.1176,1.113,1.1203,1.113,1.1187,1.1266,1.1259,1.1271,1.1281,1.1308,1.132,1.1191,1.1191,1.1191,0,1.2153,1.208,1.1965,1.1928,1.1881,1.1755,1.1738,1.1678,1.1559,1.153,1.149,1.1366,1.1292,1.125,1.1268,1.1235,1.1228,1.1201,1.1278,1.1287,1.1295,1.132,1.133,1.1199,1.1198,1.1197,1.1196,0,1.2202,1.2154,1.2153,1.204,1.1992,1.1966,1.1848,1.1814,1.1744,1.1667,1.1622,1.1528,1.1448,1.1432,1.1363,1.1381,1.1361,1.1302,1.1232,1.1319,1.1341,1.1349,1.121,1.1207,1.1205,1.1203,0,0,1.2393,1.2216,1.2218,1.2165,1.204,1.2001,1.197,1.1889,1.1864,1.1786,1.1758,1.1679,1.1623,1.1571,1.1494,1.1488,1.1553,1.1428,1.1424,1.1456,1.157,1.1617,1.163,1.1503,1.1505,1.1506,1.1579,0,1.247,1.2405,1.23,1.227,1.2225,1.2106,1.2079,1.2001,1.1928,1.188,1.18,1.1747,1.1676,1.1644,1.1632,1.1548,1.1575,1.1541,1.1478,1.1477,1.1508,1.1641,1.169,1.1763,1.1586,1.1587,1.1588,0,1.2551,1.2479,1.2445,1.2323,1.2301,1.2278,1.2197,1.2152,1.2061,1.2008,1.1952,1.1867,1.183,1.1766,1.1714,1.1694,1.1661,1.1617,1.1617,1.1608,1.154,1.1638,1.1784,1.1796,1.16,1.1599,1.1598,0,1.2696,1.259,1.2556,1.2515,1.2372,1.2359,1.23,1.2206,1.2165,1.2094,1.2066,1.1993,1.1953,1.1899,1.1798,1.176,1.1758,1.1685,1.1716,1.1718,1.1722,1.1723,1.1867,1.1699,1.1699,1.1699,1.1698,0,1.2793,1.2778,1.2619,1.2598,1.2578,1.2458,1.2442,1.2371,1.2289,1.2254,1.2147,1.2117,1.1984,1.1939,1.186,1.183,1.1813,1.1771,1.175,1.1781,1.1787,1.176,1.1753,1.1701,1.1701,1.17,1.17,0,1.2952,1.2844,1.28,1.2668,1.2635,1.2626,1.2514,1.249,1.2411,1.2368,1.2352,1.2228,1.217,1.2063,1.1974,1.1921,1.1909,1.1872,1.194,1.1927,1.1964,1.1963,1.2097,1.211,1.1933,1.1935,1.1937,0,1.3022,1.3007,1.2874,1.2842,1.2786,1.2736,1.2693,1.2575,1.2536,1.2431,1.2421,1.2354,1.2294,1.2207,1.211,1.2043,1.2005,1.2056,1.1994,1.2026,1.2008,1.2011,1.2009,1.2071,1.2074,1.2076,1.2077,0,1.3159,1.3107,1.3048,1.2972,1.2923,1.2858,1.2787,1.2768,1.2634,1.2595,1.2533,1.2487,1.2397,1.2332,1.2251,1.2191,1.2114,1.2098,1.2101,1.2134,1.2174,1.2155,1.198,1.2095,1.2094,1.2092,1.2091,1.2091,1.3276,1.3257,1.3161,1.31,1.3034,1.2971,1.2942,1.2859,1.2805,1.2722,1.2656,1.26,1.2511,1.2393,1.2338,1.2294,1.2257,1.2262,1.2264,1.2267,1.2281,1.218,1.2278,1.2278,1.2277,1.2276,1.2276,0,1.3409,1.3341,1.3286,1.319,1.3142,1.3071,1.2989,1.2955,1.2907,1.2829,1.2772,1.2703,1.264,1.2539,1.2468,1.2452,1.2415,1.2438,1.2439,1.2427,1.2317,1.2321,1.2469,1.2469,1.2469,1.2469,1.2469,1.2469,1.3472,1.3438,1.3375,1.3308,1.3239,1.3183,1.3143,1.3084,1.3022,1.2949,1.2895,1.2829,1.2742,1.2665,1.2605,1.2577,1.2557,1.2592,1.2553,1.2452,1.2434,1.2417,1.2421,1.2588,1.2588,1.2667,1.2668,1.2668]}]]